Location: Réez-Fosse-Martin
(49.1070°N, 2.9330°E)
Time: 18:45:24
(UTC+00:00)

Daily predictions for brighter satellites

Satellite Brightness Start Highest point End
(mag) Time Altitude Azimuth Time Altitude Azimuth Time Altitude Azimuth
Meteor PRIRODA 4.2 18:11:10 10° S 18:14:39 59° W 18:18:10 10° NNW
Cosmos 2056 Rocket 4.4 18:11:48 10° NNW 18:16:54 56° WSW 18:22:04 10° S
Cosmos 2360 Rocket 2.7 18:11:57 10° S 18:17:06 38° ESE 18:22:18 10° NE
COSMOS 2428 4.4 18:17:20 10° ESE 18:18:11 10° E 18:19:03 10° E
CZ-4 R/B 2.1 18:14:53 10° SE 18:18:21 31° ENE 18:21:47 10° N
USA 308 3.3 18:15:36 10° WNW 18:18:48 39° N 18:22:16 10° E
SWAS 4.4 18:14:53 10° SSW 18:19:06 80° ESE 18:23:20 10° NNE
Cosmos 1707 2.6 18:16:54 10° N 18:20:39 63° ENE 18:24:24 10° SSE
ATLAS 3B R/B 4.3 18:19:02 10° ESE 18:21:06 11° E 18:23:12 10° E
Cosmos 1975 3.8 18:21:06 10° SE 18:24:15 24° E 18:27:23 10° NE
ADEOS 4.3 18:20:39 10° S 18:25:48 60° WSW 18:30:59 10° NNW
KORONAS-FOTON 3.6 18:24:09 10° N 18:27:52 78° E 18:31:34 10° SSE
CENTAUR R/B 4.3 18:22:30 10° WNW 18:28:15 30° NNW 18:35:04 10° NE
Cosmos 1674 2.5 18:26:41 10° N 18:30:17 83° E 18:33:53 10° S
Cosmos 2285 Rocket 4.0 18:24:22 10° S 18:30:39 70° ESE 18:36:56 10° NNE
Cosmos 1331 Rocket 4.2 18:27:00 10° NNW 18:32:10 54° ENE 18:37:20 10° SE
JB-3 4.3 18:32:13 10° NNE 18:36:01 87° WNW 18:39:51 10° SSW
Cosmos 1842 4.1 18:33:45 10° NNW 18:37:29 53° W 18:41:11 10° S
Cosmos 1470 Rocket 3.9 18:34:20 10° SSE 18:38:25 41° E 18:42:32 10° NNE
Cosmos 1726 2.3 18:35:29 10° SSE 18:38:39 38° E 18:41:50 10° NNE
Cosmos 2084 3.5 18:35:33 10° NW 18:39:16 64° SW 18:43:05 10° SSE
Cosmos 1452 Rocket 3.5 18:34:50 10° NNW 18:40:09 78° ENE 18:45:26 10° SSE
USA 215 3.8 18:35:50 10° ENE 18:41:48 36° SE 18:47:43 10° SSW
COSMOS 2455 3.9 18:38:50 10° NNW 18:44:09 31° NE 18:48:29 14° E
Cosmos 494 Rocket 3.9 18:40:07 10° SSW 18:45:21 73° ESE 18:50:35 10° NNE
Okean 3 3.5 18:41:22 10° N 18:45:25 52° ENE 18:49:27 10° SSE
Meteor 2-10 4.4 18:40:44 10° SSE 18:46:14 51° E 18:51:45 10° NNE
SPOT 1/Viking Rocket 4.2 18:43:12 10° SE 18:47:50 35° ENE 18:52:30 10° N
PAYLOAD B 4.3 18:43:00 10° SSE 18:48:36 89° ENE 18:54:12 10° NNW
Cosmos 1048 Rocket 4.0 18:44:13 10° S 18:49:31 67° ESE 18:54:52 10° NNE
Cosmos 2341 Rocket 4.0 18:44:20 10° N 18:50:38 89° E 18:56:57 10° S
Cosmos 2366 rocket 3.9 18:45:27 10° N 18:51:40 72° E 18:57:47 10° SSE
BREEZE-M R/B 4.2 18:46:56 10° W 18:51:44 85° N 19:00:39 14° E
ISS -3.2 18:50:04 10° W 18:53:22 52° N 18:55:41 17° ENE
SL-8 Rocket 4.0 18:47:20 10° N 18:53:37 85° E 18:59:54 10° S
Iridium 2 3.8 18:50:32 10° N 18:53:59 68° W 18:57:23 10° S
DMSP B5D1-3 4.4 18:50:53 10° NNE 18:56:00 80° ESE 19:01:07 10° SSW
USA 305 3.3 18:54:44 10° NW 18:56:40 21° N 18:57:46 16° NE
Cosmos 1844 Rocket 3.5 18:56:07 10° NW 19:01:32 52° WSW 19:06:54 10° S
SL-16 R/B 3.0 18:58:45 10° SW 19:04:17 54° NW 19:09:53 10° NNE
Cosmos 1805 3.3 19:01:45 10° S 19:05:24 48° E 19:09:04 10° NNE
Cosmos 1703 Rocket 3.7 19:01:12 10° N 19:05:35 56° ENE 19:09:36 12° SSE
ADEOS Rocket 3.9 19:00:02 11° SE 19:07:03 48° ENE 19:14:08 10° N
BREEZE M DEB (TANK) 3.9 19:05:32 10° S 19:05:45 11° S 19:05:45 11° S
SL-14 R/B 3.3 19:03:25 10° N 19:07:20 57° ENE 19:10:26 15° SSE
Cosmos 2219 Rocket 2.4 19:03:29 10° S 19:08:47 47° ESE 19:14:08 10° NE
USA 306 3.2 19:05:42 10° WNW 19:09:26 48° NNE 19:11:24 24° ENE
NOSS 2-3 (E) 3.8 19:07:41 10° S 19:11:06 35° ESE 19:13:24 19° ENE
CSL-04 Debris 4.2 19:09:47 10° SSE 19:15:10 67° ENE 19:20:35 10° N
Okean 2 3.6 19:11:20 10° N 19:15:15 46° ENE 19:17:04 27° SE
CZ-4C R/B 2.8 19:12:22 10° NNE 19:15:47 74° ESE 19:19:11 10° S
Cosmos 2218 Rocket 4.1 19:10:34 10° NNW 19:16:43 79° W 19:22:51 10° S
SL-8 R/B 3.6 19:12:03 10° W 19:16:49 82° S 19:19:19 28° ESE
Cosmos 1943 Rocket 3.8 19:12:53 10° N 19:16:59 20° NE 19:19:16 16° ENE
Cosmos 1933 Rocket 3.5 19:13:02 10° S 19:17:21 58° E 19:21:41 10° NNE
USA 267 3.3 19:13:24 21° ESE 19:18:00 73° NNE 19:24:33 10° NW
USA 186 1.5 19:17:05 34° SSE 19:18:12 67° ENE 19:21:12 10° N
USA 307 2.8 19:16:20 10° NW 19:18:49 33° NNE 19:19:18 30° NE
APEX 3.8 19:17:12 10° NNW 19:21:02 36° NE 19:21:49 32° E
CZ-4B R/B 3.4 19:17:29 10° S 19:22:45 67° WSW 19:28:03 10° NNW
Feng Yun 1-1 Rocket 4.4 19:20:12 10° SSE 19:26:05 83° WSW 19:31:55 10° NNW
Okean O Rocket 1.7 19:24:10 10° S 19:28:30 79° WSW 19:32:58 10° NNW
USA 81 4.2 19:23:35 10° S 19:28:50 75° W 19:34:07 10° N
CZ-4C R/B 4.2 19:25:18 10° WNW 19:29:46 25° NNW 19:35:07 10° NE
Cosmos 2322 Rocket 3.1 19:24:43 10° SW 19:30:10 51° NW 19:35:40 10° NNE
Okean 1-7 3.4 19:26:29 10° NNW 19:30:46 64° W 19:35:02 10° S
SPOT 5 4.2 19:31:11 21° ENE 19:31:15 21° ENE 19:34:39 10° NNE
CARTOSAT-1 3.9 19:32:57 38° E 19:33:45 43° ENE 19:37:50 10° N
Cosmos 2278 Rocket 2.8 19:28:47 10° NNW 19:34:08 40° NE 19:36:01 31° E
Cosmos 1340 Rocket 3.5 19:30:42 10° NNW 19:34:41 55° W 19:38:38 10° S
IRS-1C Rocket 4.4 19:33:26 33° ESE 19:35:15 45° ENE 19:40:16 10° N
Lacrosse 5 3.1 19:31:34 10° W 19:36:20 37° NNW 19:40:18 14° NE
Resurs 01 Rocket 1.6 19:36:14 37° SE 19:37:52 63° ENE 19:42:17 10° N
CSL-04 Rocket 3.5 19:34:22 17° SSE 19:38:33 90° NW 19:43:53 10° NNW
SL-08 R/B 4.4 19:34:32 10° N 19:40:45 74° E 19:45:00 21° SSE
ERS-1 Rocket 4.4 19:41:43 21° ENE 19:41:46 21° ENE 19:45:28 10° NNE
SJ-6B 4.1 19:39:35 10° SSW 19:43:23 40° W 19:47:12 10° NNW
Cosmos 1818 3.7 19:38:38 10° NW 19:44:04 59° NE 19:45:51 40° ESE
NOSS 7 (H) 4.4 19:41:54 10° SW 19:45:50 70° SSE 19:45:50 70° SSE
Okean-O 2.5 19:51:51 48° SSE 19:53:03 82° ENE 19:57:29 10° NNW
CZ-4 R/B 3.5 19:49:55 10° SSW 19:53:09 25° W 19:56:22 10° NW
Cosmos 1241 Rocket 4.4 19:46:56 10° NW 19:53:16 81° SW 19:56:08 34° SSE
BREEZE-M DEB (TANK) 3.0 19:49:33 10° W 19:53:38 71° WSW 19:53:38 71° WSW
BREEZE-M DEB (TANK) 3.2 19:51:17 10° W 19:53:58 57° SSW 19:54:40 49° SSE
USA 308 2.4 19:50:36 10° WNW 19:54:06 78° SW 19:54:06 78° SW
Cosmos 1766 3.5 19:56:26 51° NNE 19:56:26 51° NNE 19:59:24 10° NNE
Cosmos 2333 Rocket 2.8 19:50:42 10° SW 19:56:16 57° NW 20:01:52 10° NNE
Cosmos 1869 Rocket 3.4 19:55:10 37° S 19:56:54 81° E 20:01:17 10° NNE
Meteor 1-24 Rocket 4.4 19:52:04 10° N 19:57:03 33° ENE 19:57:03 33° ENE
Cosmos 2360 Rocket 3.4 19:55:43 10° WSW 20:01:04 42° NW 20:06:28 10° NNE
COSMOS 2428 2.6 19:55:41 10° SSW 20:01:17 65° ESE 20:06:55 10° NNE
Cosmos 2242 Rocket 3.6 19:57:58 10° NNW 20:02:27 82° W 20:03:34 51° S
Cosmos 1605 Rocket 4.4 19:56:46 10° N 20:02:29 40° ENE 20:02:57 39° E
Cosmos 2322 3.6 19:57:14 10° SSW 20:02:57 82° ESE 20:08:43 10° NNE
Cosmos 2237 Rocket 4.4 20:10:08 11° NE 20:10:08 11° NE 20:10:24 10° NE
Cosmos 1339 Rocket 4.5 20:08:21 48° SE 20:09:42 57° E 20:15:53 10° NNE
Cosmos 2369 Rocket 4.1 20:06:31 10° N 20:09:48 15° NNE 20:10:57 15° NE
ATLAS 3B R/B 2.8 20:03:27 10° SSW 20:10:08 56° ESE 20:17:21 10° NE
MOS 1 4.2 20:12:48 53° SSE 20:14:14 83° ENE 20:19:55 10° NNW
Cosmos 1992 Rocket 3.9 20:15:01 10° NNW 20:20:16 84° WSW 20:20:54 69° S
CENTAUR R/B 4.4 20:15:01 10° NW 20:21:18 29° NNE 20:26:45 16° ENE
MetOp-B 4.0 20:22:13 70° E 20:22:30 71° ENE 20:27:52 10° N
NOSS 0 Rocket 4.4 20:24:46 44° ENE 20:24:46 44° ENE 20:29:16 10° NE
Cosmos 1934 Rocket 3.9 20:17:13 10° N 20:23:39 87° E 20:25:24 51° SSE
Spot 2 Rocket 4.4 20:25:32 35° NE 20:25:32 35° NE 20:29:17 10° N
NOSS 2-3 (C) 3.9 20:21:27 10° WSW 20:25:11 56° NW 20:25:23 56° NNW
USA 215 3.2 20:19:39 15° NE 20:25:14 84° NNW 20:31:48 10° WSW
Ariane Rocket 3.4 20:28:25 49° NE 20:28:25 49° NE 20:32:41 10° N
NOSS 2-3 (D) 4.1 20:26:33 10° WSW 20:29:43 49° WNW 20:29:43 49° WNW
ISS -1.6 20:26:58 10° WNW 20:28:36 26° WNW 20:28:36 26° WNW
COSMOS 2455 2.9 20:24:37 10° NW 20:30:38 74° WSW 20:31:38 61° S
Terra 3.0 20:41:30 34° NNE 20:41:30 34° NNE 20:44:28 10° N
IRS-1A Rocket 4.3 20:50:23 69° WSW 20:50:33 69° WSW 20:56:04 10° NNW
ADEOS Rocket 4.3 20:47:00 19° SSW 20:52:27 47° W 20:59:43 10° NNW
Cosmos 2219 Rocket 3.6 20:47:46 10° WSW 20:52:53 35° NW 20:58:02 10° NNE
USA 267 3.7 21:00:46 46° SSW 21:01:16 46° SW 21:07:33 10° WNW
Cosmos 1943 Rocket 2.5 20:55:58 10° NNW 21:00:47 63° N 21:00:47 63° N
Meteor 2-5 Rocket 3.9 20:58:00 10° NNW 21:03:16 70° NW 21:03:16 70° NW
SPOT 5 3.9 21:10:23 41° NW 21:10:23 41° NW 21:13:33 10° NNW
SPOT 3 Rocket 4.4 21:15:15 47° NNW 21:15:15 47° NNW 21:18:55 10° NNW
Resurs 01 Rocket 4.1 21:13:47 15° WSW 21:14:45 16° W 21:17:35 10° NW
Cosmos 2278 Rocket 3.2 21:12:58 10° NW 21:17:52 40° W 21:17:52 40° W
ERS-1 Rocket 4.0 21:21:41 42° NW 21:21:41 42° NW 21:25:07 10° NNW
Lacrosse 5 3.3 21:15:33 10° WNW 21:19:29 35° N 21:19:29 35° N
CZ-4C R/B 4.3 21:15:23 10° NW 21:20:23 25° NNE 21:23:43 18° NE
Cosmos 2237 Rocket 3.7 21:51:55 30° N 21:51:55 30° N 21:54:55 10° NNE
Cosmos 2369 Rocket 3.6 21:49:34 10° NNW 21:52:42 33° N 21:52:42 33° N
ATLAS 3B R/B 3.6 21:54:16 10° WSW 22:01:06 49° NW 22:08:24 10° NE
USA 215 4.0 22:07:03 46° NNE 22:07:56 49° N 22:14:10 10° W
CENTAUR R/B 3.6 22:06:08 10° NW 22:13:50 53° NE 22:13:52 53° NE
Terra 4.4 22:20:15 16° NW 22:20:15 16° NW 22:21:35 10° NW
CZ-4C R/B 3.8 23:03:59 10° NW 23:08:48 41° N 23:08:48 41° N
SL-16 R/B 4.4 23:38:11 21° N 23:38:11 21° N 23:40:39 10° NNE
